Torna al catalogo

STARLINK-11099

AttivoComunicazioniVLEO
NORAD 59716·PAYLOAD·🇺🇸 United States

Lanciato May 10, 2024 da Vandenberg Space Force Base

Loading…

Prossimi Passaggi (prossime 24 ore)

TLE

AggiornatoSource: CelesTrak SupGP

Epoca: Sep 14, 2026, 14:14 UTC

1 59716C 24088J   26257.59354167  .00066491  00000+0  54767-3 0  2576
2 59716  53.1566 115.0072 0001140 105.7069 202.8455 15.69677818    11

Traccia STARLINK-11099 in tempo reale con AllMySat

Download on the App Store